Nachtflug: NVFR

Flugschule

Flugschule

Wir bieten eine professionelle und umfassende Ausbildung.

Flugwetter Augsburg

[Quelle: ADDS]
METAR
EDMA 280150Z AUTO 27011KT 9999 FEW013/// BKN043/// 02/01 Q1027 =
EDMA 271718Z 2718/2803 27010KT 9999 FEW012 BKN020 PROB30 TEMPO 2718/2719 4000 RASN PROB30 TEMPO 2719/2724 4000 -RADZ BKN012 PROB40 TEMPO 2800/2803 3000 -SHRASN BKN012TCU
TAF
EDMA 271718Z 2718/2803 27010KT 9999 FEW012 BKN020 PROB30 TEMPO 2718/2719 4000 RASN PROB30 TEMPO 2719/2724 4000 -RADZ BKN012 PROB40 TEMPO 2800/2803 3000 -SHRASN BKN012TCU =

Kontakt

Nachtflug: NVFR

Berechtigung

Nachtflug: NVFRZur Durchführung von Überlandflügen bei Nacht.

Voraussetzungen

Die Voraussetzung für diese Qualifikation ist der LAPL (A) oder PPL (A)

Achtung: für LAPL Inhaber, ist die Instrumentenflugausbildung der PPL (A) erforderlich

Theoretische Ausbildung

  • zwei Stunden Theorieausbildung

Praktische Ausbildung

Zur praktischen Ausbildung gehören 5 Flugstunden bei Nacht, davon mindestens 3 Stunden Ausbildung mit einem Lehrberechtigten, davon mindestens eine Stunde Überland-Navigation mit mindestens einem Überlandflug mit Fluglehrer von mindestens 50 km und 5 Alleinstarts und 5 Alleinlandungen bis zum vollständigen Stillstand.

Prüfung

Eine Prüfung ist nicht erforderlich. Mit Abschluss der erforderlichen Flugausbildung senden wir das Antragsformular an die zuständige Luftfahrtbehörde. Sie bekommen dann eine neue Lizenz mit der Eintragung NVFR.